| time (UTC) | temp F | wind direction | speed knots | gust knots | rain 1hr in | rain 24hr in | rain mn in | humidity % | barometer mb |
| 20260504202515 | 59 | 55 | 1.7 | 2.6 | 0.00 | 0.00 | 0.00 | 80 | 1014.6 |
| 20260504201515 | 59 | 53 | 0.9 | 0.9 | 0.00 | 0.00 | 0.00 | 79 | 1014.5 |
| 20260504200517 | 59 | 53 | 0.9 | 1.7 | 0.00 | 0.00 | 0.00 | 79 | 1014.5 |
| 20260504195517 | 60 | 53 | 0.9 | 1.7 | 0.00 | 0.00 | 0.00 | 78 | 1014.4 |
| 20260504194517 | 60 | 54 | 0.9 | 1.7 | 0.00 | 0.00 | 0.00 | 76 | 1014.3 |
| 20260504193516 | 61 | 53 | 0.9 | 1.7 | 0.00 | 0.00 | 0.00 | 75 | 1014.3 |
| 20260504192515 | 61 | 54 | 0.9 | 2.6 | 0.00 | 0.00 | 0.00 | 75 | 1014.2 |
| 20260504191517 | 62 | 53 | 0.9 | 2.6 | 0.00 | 0.00 | 0.00 | 73 | 1014.1 |
| 20260504190537 | 62 | 144 | 1.7 | 2.6 | 0.00 | 0.00 | 0.00 | 72 | 1014.0 |
| 20260504185516 | 63 | 147 | 0.9 | 2.6 | 0.00 | 0.00 | 0.00 | 71 | 1013.8 |
| 20260504184516 | 63 | 174 | 1.7 | 1.7 | 0.00 | 0.00 | 0.00 | 69 | 1013.7 |
| 20260504183516 | 65 | 174 | 0.9 | 1.7 | 0.00 | 0.00 | 0.00 | 66 | 1013.7 |
| 20260504182536 | 66 | 174 | 0.9 | 1.7 | 0.00 | 0.00 | 0.00 | 64 | 1013.7 |
| 20260504181516 | 67 | 175 | 0.0 | 0.9 | 0.00 | 0.00 | 0.00 | 62 | 1013.7 |
| 20260504180515 | 68 | 175 | 0.0 | 2.6 | 0.00 | 0.00 | 0.00 | 60 | 1013.6 |
| 20260504175515 | 69 | 174 | 2.6 | 5.2 | 0.00 | 0.00 | 0.00 | 58 | 1013.5 |
| 20260504174515 | 69 | 161 | 2.6 | 6.1 | 0.00 | 0.00 | 0.00 | 57 | 1013.4 |
| 20260504173537 | 70 | 150 | 2.6 | 7.0 | 0.00 | 0.00 | 0.00 | 57 | 1013.3 |
| 20260504172517 | 70 | 154 | 1.7 | 6.1 | 0.00 | 0.00 | 0.00 | 58 | 1013.3 |
| 20260504171557 | 70 | 159 | 3.5 | 7.8 | 0.00 | 0.00 | 0.00 | 62 | 1013.3 |
| 20260504170516 | 71 | 150 | 3.5 | 6.1 | 0.00 | 0.00 | 0.00 | 62 | 1013.3 |
| 20260504150537 | 75 | 143 | 2.6 | 7.0 | 0.00 | 0.00 | 0.00 | 56 | 1013.6 |
| 20260504140516 | 75 | 133 | 1.7 | 7.8 | 0.00 | 0.00 | 0.00 | 52 | 1013.9 |
| 20260504130516 | 78 | 126 | 4.3 | 9.6 | 0.00 | 0.00 | 0.00 | 49 | 1014.3 |
| 20260504110515 | 77 | 77 | 4.3 | 7.8 | 0.00 | 0.00 | 0.00 | 41 | 1015.0 |
| 20260504100516 | 76 | 114 | 1.7 | 5.2 | 0.00 | 0.00 | 0.00 | 40 | 1015.6 |
| 20260504081516 | 71 | 70 | 0.9 | 4.3 | 0.00 | 0.00 | 0.00 | 48 | 1015.8 |
| 20260504080536 | 70 | 83 | 0.9 | 3.5 | 0.00 | 0.00 | 0.00 | 50 | 1015.7 |
| 20260504050516 | 53 | 26 | 1.7 | 4.3 | 0.00 | 0.00 | 0.00 | 87 | 1014.9 |
| 20260504045515 | 51 | 25 | 1.7 | 3.5 | 0.00 | 0.00 | 0.00 | 87 | 1014.8 |
| 20260504044515 | 51 | 25 | 1.7 | 4.3 | 0.00 | 0.00 | 0.00 | 88 | 1014.8 |
| 20260504043517 | 50 | 25 | 2.6 | 4.3 | 0.00 | 0.00 | 0.00 | 88 | 1014.7 |
| 20260504042517 | 50 | 23 | 3.5 | 5.2 | 0.00 | 0.00 | 0.00 | 88 | 1014.7 |
| 20260504041537 | 50 | 30 | 1.7 | 5.2 | 0.00 | 0.00 | 0.00 | 88 | 1014.6 |
| 20260504040517 | 50 | 24 | 3.5 | 5.2 | 0.00 | 0.00 | 0.00 | 88 | 1014.6 |
| 20260504035516 | 50 | 25 | 3.5 | 4.3 | 0.00 | 0.00 | 0.00 | 87 | 1014.7 |
| 20260504034536 | 50 | 21 | 3.5 | 4.3 | 0.00 | 0.00 | 0.00 | 88 | 1014.7 |
| 20260504033516 | 50 | 21 | 2.6 | 4.3 | 0.00 | 0.00 | 0.00 | 88 | 1014.7 |
| 20260504032516 | 50 | 22 | 1.7 | 4.3 | 0.00 | 0.00 | 0.00 | 88 | 1014.7 |
| 20260504031536 | 50 | 22 | 1.7 | 5.2 | 0.00 | 0.00 | 0.00 | 88 | 1014.7 |
| 20260504030516 | 50 | 36 | 2.6 | 4.3 | 0.00 | 0.00 | 0.00 | 88 | 1014.7 |
| 20260504025557 | 50 | 32 | 1.7 | 4.3 | 0.00 | 0.00 | 0.00 | 88 | 1014.8 |
| 20260504024516 | 50 | 30 | 1.7 | 4.3 | 0.00 | 0.00 | 0.00 | 88 | 1014.8 |
| 20260504023516 | 50 | 28 | 3.5 | 4.3 | 0.00 | 0.00 | 0.00 | 87 | 1014.9 |
| 20260504022516 | 50 | 29 | 1.7 | 4.3 | 0.00 | 0.00 | 0.00 | 87 | 1014.9 |
| 20260504021516 | 50 | 30 | 1.7 | 3.5 | 0.00 | 0.00 | 0.00 | 86 | 1014.9 |
| 20260504020515 | 51 | 30 | 0.9 | 2.6 | 0.00 | 0.00 | 0.00 | 86 | 1014.9 |
| 20260504015515 | 51 | 30 | 1.7 | 2.6 | 0.00 | 0.00 | 0.00 | 86 | 1014.9 |
| 20260504014517 | 51 | 30 | 1.7 | 2.6 | 0.00 | 0.00 | 0.00 | 85 | 1015.0 |
| 20260504013517 | 52 | 30 | 0.9 | 2.6 | 0.00 | 0.00 | 0.00 | 84 | 1015.0 |
| 20260504012517 | 52 | 30 | 1.7 | 2.6 | 0.00 | 0.00 | 0.00 | 84 | 1015.0 |
| 20260504011536 | 52 | 30 | 0.9 | 2.6 | 0.00 | 0.00 | 0.00 | 84 | 1015.0 |
| 20260504010516 | 52 | 30 | 0.9 | 1.7 | 0.00 | 0.00 | 0.00 | 83 | 1015.0 |
| 20260504005516 | 53 | 30 | 0.9 | 1.7 | 0.00 | 0.00 | 0.00 | 84 | 1015.0 |
| 20260504004516 | 53 | 30 | 0.9 | 1.7 | 0.00 | 0.00 | 0.00 | 83 | 1015.0 |
| 20260504003515 | 53 | 30 | 0.9 | 1.7 | 0.00 | 0.00 | 0.00 | 83 | 1015.1 |
| 20260504002515 | 53 | 30 | 0.9 | 2.6 | 0.00 | 0.00 | 0.00 | 82 | 1015.1 |
| 20260504001515 | 53 | 32 | 0.9 | 3.5 | 0.00 | 0.00 | 0.00 | 82 | 1015.1 |
| 20260504000517 | 54 | 29 | 0.9 | 3.5 | 0.00 | 0.00 | 0.00 | 81 | 1015.0 |
| 20260503235517 | 54 | 25 | 2.6 | 4.3 | 0.00 | 0.00 | 0.00 | 81 | 1015.1 |
| 20260503234517 | 54 | 32 | 1.7 | 4.3 | 0.00 | 0.00 | 0.00 | 80 | 1015.1 |
| 20260503233516 | 54 | 41 | 0.9 | 3.5 | 0.00 | 0.00 | 0.00 | 81 | 1015.1 |
| 20260503232517 | 54 | 42 | 1.7 | 3.5 | 0.00 | 0.00 | 0.00 | 81 | 1015.1 |
| 20260503231516 | 53 | 68 | 0.9 | 2.6 | 0.00 | 0.00 | 0.00 | 81 | 1015.2 |
| 20260503230516 | 54 | 68 | 0.9 | 1.7 | 0.00 | 0.00 | 0.00 | 80 | 1015.2 |
| 20260503225517 | 54 | 69 | 0.9 | 3.5 | 0.00 | 0.00 | 0.00 | 81 | 1015.2 |
| 20260503224517 | 53 | 91 | 0.9 | 2.6 | 0.00 | 0.00 | 0.00 | 81 | 1015.2 |
| 20260503223516 | 53 | 116 | 1.7 | 2.6 | 0.00 | 0.00 | 0.00 | 82 | 1015.3 |
| 20260503222556 | 53 | 147 | 0.9 | 1.7 | 0.00 | 0.00 | 0.00 | 82 | 1015.3 |
| 20260503221516 | 53 | 146 | 0.9 | 1.7 | 0.00 | 0.00 | 0.00 | 81 | 1015.1 |
| 20260503220515 | 54 | 148 | 0.9 | 0.9 | 0.00 | 0.00 | 0.00 | 80 | 1015.0 |
| 20260503215515 | 54 | 148 | 0.0 | 0.9 | 0.00 | 0.00 | 0.00 | 79 | 1015.0 |
| 20260503214516 | 55 | 147 | 0.0 | 0.9 | 0.00 | 0.00 | 0.00 | 79 | 1015.0 |
| 20260503213515 | 55 | 0.0 | 0.9 | 0.00 | 0.00 | 0.00 | 78 | 1015.0 | |
| 20260503212517 | 55 | 147 | 0.0 | 0.9 | 0.00 | 0.00 | 0.00 | 79 | 1014.9 |
| 20260503211517 | 56 | 147 | 0.9 | 1.7 | 0.00 | 0.00 | 0.00 | 79 | 1014.9 |
| 20260503210517 | 56 | 154 | 0.9 | 1.7 | 0.00 | 0.00 | 0.00 | 78 | 1014.8 |
| 20260503205516 | 56 | 206 | 0.9 | 1.7 | 0.00 | 0.00 | 0.00 | 77 | 1014.8 |
| 20260503204516 | 56 | 208 | 0.9 | 1.7 | 0.00 | 0.00 | 0.00 | 75 | 1014.9 |
| 20260503203516 | 57 | 207 | 0.0 | 0.9 | 0.00 | 0.00 | 0.00 | 75 | 1014.9 |